Weather History for Three Rivers, MI

Change the Weather History Date:

Tuesday, January 15, 2013

  Actual Average Record
Temperature  
Mean Temperature 20 °F -  
Max Temperature 28 °F 28 °F 58 °F (1953)
Min Temperature 12 °F 13 °F -18 °F (1979)
Degree Days  
Heating Degree Days 45    
Moisture  
Dew Point 16 °F    
Average Humidity 82    
Maximum Humidity 91    
Minimum Humidity 64    
Precipitation  
Precipitation 0.00 in - - ()
Sea Level Pressure  
Sea Level Pressure 30.32 in    
Wind  
Wind Speed 0 mph (SSE)    
Max Wind Speed 6 mph    
Max Gust Speed -    
Visibility 9 miles    
Events      
Averages and records for this station are not official NWS values.
T = Trace of Precipitation, MM = Missing Value Source: NWS Daily Summary

Daily Weather History Graph

Daily Weather History Graph

Search for Another Location

Airport:

Trip Planner

Search our weather history database for the weather conditions in past years. The results will help you decide how hot, cold, wet, or windy it might be!

Date:

Astronomy

Jan. 15, 2013 Rise Set
Actual Time 8:07 AM EST 5:36 PM EST
Civil Twilight 7:36 AM EST 6:07 PM EST
Nautical Twilight 7:02 AM EST 6:41 PM EST
Astronomical Twilight 6:29 AM EST 7:15 PM EST
Moon 10:08 AM EST (1/15) 10:31 PM EST (1/15)
Length of Visible Light 10h 30m
Length of Day
9h 28m
Waxing Crescent, 19% of the Moon is Illuminated
Jan 15
Waxing Crescent
Jan 18
First Quarter
Jan 26
Full
Feb 3
Last Quarter
Feb 10
New

Hourly Weather History & Observations

Time (EST) Temp. Windchill Dew Point Humidity Pressure Visibility Wind Dir Wind Speed Gust Speed Precip Events Conditions
12:15 AM 16.7 °F - 13.1 °F 86% 30.38 in 10.0 mi Calm Calm - N/A   Clear
12:35 AM 14.7 °F - 11.8 °F 88% 30.38 in 10.0 mi Calm Calm - N/A   Clear
12:55 AM 14.2 °F - 11.1 °F 88% 30.39 in 10.0 mi Calm Calm - N/A   Clear
1:15 AM 15.6 °F - 12.9 °F 89% 30.39 in 10.0 mi Calm Calm - N/A   Clear
1:35 AM 15.4 °F - 13.1 °F 90% 30.39 in 10.0 mi Calm Calm - N/A   Clear
1:55 AM 15.1 °F - 12.7 °F 90% 30.40 in 10.0 mi Calm Calm - N/A   Clear
2:14 AM 14.9 °F - 12.4 °F 90% 30.40 in 10.0 mi Calm Calm - N/A   Clear
2:35 AM 15.6 °F - 13.3 °F 90% 30.40 in 10.0 mi Calm Calm - N/A   Clear
2:54 AM 15.8 °F 10.2 °F 13.5 °F 90% 30.40 in 10.0 mi SSW 3.5 mph - N/A   Clear
3:15 AM 15.3 °F - 12.9 °F 90% 30.40 in 10.0 mi Calm Calm - N/A   Clear
3:35 AM 15.6 °F - 13.1 °F 90% 30.39 in 10.0 mi Calm Calm - N/A   Clear
3:55 AM 14.9 °F 9.2 °F 12.2 °F 89% 30.39 in 10.0 mi SSW 3.5 mph - N/A   Clear
4:15 AM 14.9 °F - 12.6 °F 90% 30.39 in 10.0 mi Calm Calm - N/A   Clear
4:34 AM 14.5 °F - 12.0 °F 90% 30.39 in 10.0 mi Calm Calm - N/A   Clear
4:55 AM 14.0 °F - 11.7 °F 90% 30.39 in 10.0 mi Calm Calm - N/A   Clear
5:15 AM 14.9 °F - 12.2 °F 89% 30.39 in 10.0 mi Calm Calm - N/A   Clear
5:55 AM 14.9 °F - 12.4 °F 90% 30.38 in 10.0 mi Calm Calm - N/A   Clear
6:15 AM 13.5 °F - 11.1 °F 90% 30.38 in 7.0 mi Calm Calm - N/A   Clear
6:34 AM 13.1 °F - 10.9 °F 91% 30.39 in 7.0 mi Calm Calm - N/A   Clear
6:55 AM 13.5 °F - 11.1 °F 90% 30.38 in 10.0 mi Calm Calm - N/A   Clear
7:14 AM 12.6 °F - 10.2 °F 90% 30.38 in 7.0 mi Calm Calm - N/A   Clear
7:35 AM 13.1 °F - 10.8 °F 90% 30.38 in 7.0 mi Calm Calm - N/A   Clear
7:54 AM 12.9 °F - 10.4 °F 90% 30.39 in 7.0 mi Calm Calm - N/A   Clear
8:15 AM 13.6 °F 6.0 °F 11.3 °F 90% 30.40 in 7.0 mi South 4.6 mph - N/A   Clear
8:35 AM 14.9 °F 9.2 °F 12.4 °F 90% 30.41 in 7.0 mi South 3.5 mph - N/A   Clear
8:54 AM 15.4 °F - 13.1 °F 90% 30.40 in 7.0 mi Calm Calm - N/A   Clear
9:15 AM 16.9 °F - 14.5 °F 91% 30.40 in 7.0 mi Calm Calm - N/A   Clear
9:35 AM 17.8 °F - 15.3 °F 90% 30.40 in 7.0 mi Calm Calm - N/A   Clear
9:54 AM 18.7 °F - 15.8 °F 89% 30.39 in 7.0 mi Calm Calm - N/A   Clear
10:15 AM 19.4 °F - 16.0 °F 87% 30.39 in 7.0 mi Calm Calm - N/A   Clear
10:35 AM 21.0 °F - 17.6 °F 87% 30.40 in 7.0 mi Calm Calm - N/A   Clear
10:55 AM 22.8 °F - 18.5 °F 83% 30.40 in 7.0 mi Calm Calm - N/A   Clear
11:15 AM 23.7 °F - 18.5 °F 80% 30.40 in 10.0 mi Calm Calm - N/A   Clear
11:35 AM 24.8 °F - 18.5 °F 77% 30.40 in 10.0 mi Calm Calm - N/A   Clear
11:55 AM 25.5 °F 21.3 °F 18.5 °F 75% 30.39 in 10.0 mi SE 3.5 mph - N/A   Clear
12:15 PM 26.4 °F 19.8 °F 19.2 °F 74% 30.36 in 10.0 mi ESE 5.8 mph - N/A   Clear
12:34 PM 26.8 °F 20.2 °F 18.0 °F 69% 30.34 in 10.0 mi ESE 5.8 mph - N/A   Clear
12:55 PM 27.3 °F 22.0 °F 17.2 °F 66% 30.33 in 10.0 mi SE 4.6 mph - N/A   Clear
1:15 PM 27.7 °F 22.4 °F 17.1 °F 64% 30.34 in 10.0 mi SE 4.6 mph - N/A   Clear
1:34 PM 27.9 °F - 17.4 °F 65% 30.34 in 10.0 mi Calm Calm - N/A   Clear
1:55 PM 28.4 °F - 17.8 °F 64% 30.31 in 10.0 mi Calm Calm - N/A   Clear
2:15 PM 28.2 °F - 18.5 °F 67% 30.30 in 10.0 mi Calm Calm - N/A   Clear
2:34 PM 27.9 °F - 17.8 °F 66% 30.30 in 10.0 mi Calm Calm - N/A   Clear
2:55 PM 27.5 °F - 17.1 °F 65% 30.30 in 10.0 mi Calm Calm - N/A   Clear
3:15 PM 27.5 °F - 16.7 °F 64% 30.30 in 10.0 mi Calm Calm - N/A   Clear
3:35 PM 27.9 °F - 17.6 °F 65% 30.29 in 10.0 mi Calm Calm - N/A   Clear
3:55 PM 27.9 °F - 17.4 °F 65% 30.29 in 10.0 mi Calm Calm - N/A   Clear
4:15 PM 27.9 °F - 17.8 °F 66% 30.27 in 10.0 mi Calm Calm - N/A   Clear
4:35 PM 28.0 °F - 17.8 °F 65% 30.27 in 10.0 mi Calm Calm - N/A   Clear
4:55 PM 27.7 °F - 18.1 °F 67% 30.27 in 10.0 mi Calm Calm - N/A   Clear
5:14 PM 27.5 °F - 18.1 °F 68% 30.29 in 10.0 mi Calm Calm - N/A   Clear
5:35 PM 27.5 °F - 18.0 °F 67% 30.29 in 10.0 mi Calm Calm - N/A   Clear
5:55 PM 27.1 °F - 18.1 °F 69% 30.28 in 10.0 mi Calm Calm - N/A   Clear
6:14 PM 26.6 °F - 18.7 °F 72% 30.27 in 10.0 mi Calm Calm - N/A   Clear
6:35 PM 26.6 °F - 19.4 °F 74% 30.27 in 10.0 mi Calm Calm - N/A   Clear
6:55 PM 26.4 °F - 19.4 °F 75% 30.27 in 10.0 mi Calm Calm - N/A   Clear
7:14 PM 24.6 °F - 19.6 °F 81% 30.26 in 10.0 mi Calm Calm - N/A   Clear
7:35 PM 23.0 °F - 18.7 °F 84% 30.24 in 10.0 mi Calm Calm - N/A   Clear
7:55 PM 23.0 °F - 19.2 °F 85% 30.23 in 10.0 mi Calm Calm - N/A   Clear
8:14 PM 22.3 °F - 19.0 °F 87% 30.22 in 10.0 mi Calm Calm - N/A   Clear
8:35 PM 21.7 °F - 18.7 °F 88% 30.22 in 10.0 mi Calm Calm - N/A   Clear
8:55 PM 21.2 °F - 18.5 °F 89% 30.20 in 10.0 mi Calm Calm - N/A   Clear
9:15 PM 21.0 °F - 18.5 °F 90% 30.18 in 10.0 mi Calm Calm - N/A   Clear
9:35 PM 21.2 °F - 18.3 °F 89% 30.18 in 10.0 mi Calm Calm - N/A   Clear
9:55 PM 22.1 °F - 19.2 °F 89% 30.18 in 10.0 mi Calm Calm - N/A   Clear
10:15 PM 21.4 °F - 18.1 °F 87% 30.17 in 10.0 mi Calm Calm - N/A   Clear
10:35 PM 21.0 °F - 18.3 °F 89% 30.16 in 10.0 mi Calm Calm - N/A   Clear
10:55 PM 20.5 °F - 18.1 °F 91% 30.15 in 7.0 mi Calm Calm - N/A   Clear
11:15 PM 20.1 °F - 17.4 °F 89% 30.16 in 7.0 mi Calm Calm - N/A   Clear
11:34 PM 19.4 °F - 16.7 °F 89% 30.15 in 7.0 mi Calm Calm - N/A   Clear
11:55 PM 19.4 °F - 16.9 °F 90% 30.13 in 7.0 mi Calm Calm - N/A   Clear